MOVE-IIB (44398 NORAD) Tracking and Keplerian Element Data

This shows tracking and keplerian element data for the satellite.

Feedback or suggestion? Click here.




ElementValue
Catalog44398
NameMOVE-IIB
Epoch Orbit18681
Epoch Day324.93058852
Epoch Year2022
RAAN296.2748
Inclination97.6461
Eccentricity0.0018122
Argument of Perigee312.9787
Mean Anonmoly46.9929
Mean Motion15.23171572
Decay Rate0.00015891
L11 44398U 19038N 22324.93058852 .00015891 00000+0 67165-3 0 9993
L22 44398 97.6461 296.2748 0018122 312.9787 46.9929 15.23171572186819



Live tracking and technical data element details for MOVE-IIB (NORAD 44398). MOVE-IIB can be tracked NOW for your location showing map with azimuth and elevation plus other details from your city location.







IsCatalogInMostPopularTable: catalog: 44398, numindb: 219
Update: records affected: 1



GetName: 44398 MOVE-IIB

Hit Count: updated at: Fri, 02 Dec 2022 11:55:25 GMT